星链-32939 (STARLINK-32939)

导读

STARLINK-32939是美国SpaceX星链星座的卫星,于2025年3月3日发射升空。星链项目旨在构建全球卫星互联网星座,为全球偏远地区、海洋空域等地面网络覆盖盲区提供高速互联网接入服务,这颗卫星入轨后将扩充星链星座规模,进一步提升全球网络服务覆盖范围与容量。

Basic Information
目录编号:
63149
目录名称:
STARLINK-32939
国际标识:
2025-043T
轨道中心:
EARTH
卫星名称:
星链-32939
卫星全名:
星链-32939 (STARLINK-32939)
卫星状态:
在轨 (已飞行550 天)
发射日期:
2025-03-03 UTC
国别 :
美国 (US)
星等 :
--
Orbit Information
数据来源 国际轨道数据
星历时间: 2026-09-04T14:05:08+0800
9小时前
查看轨道信息
半长轴: 6861.169km
偏心率: 0.0001022
轨道倾角: 43.005°
近地点辐角 284.131°
升交点赤经 87.596°
平近点角 75.943°
近地点: 482.33km
远地点: 483.734km
周期: 94.266分钟
每日圈数: 15.27586
Detailed Information
固有亮度:
5
最大亮度:
2.5
卫星平台:
Starlink V1.0
覆盖范围:
全球
运营商:
太空探索技术公司
运营商所在国:
美国
制造商(研发单位):
太空探索技术公司
制造商所在国:
美国
使用方式:
暂无
Satellite Introduction
Starlink 计划是 SpaceX 推出的全球卫星互联网项目,通过发射低轨道卫星,为全球尤其是偏远地区提供高速、低延迟的互联网服务。自 2019 年起,Starlink 已部署数千颗卫星,旨在缩小全球数字鸿沟,推动互联网普及。该项目还为军事、航空等行业提供通信支持,带来广泛经济效益。
2D Orbit Map
3D Orbit Map
Orbit Altitude Analysis Chart
Orbit Inclination Analysis Chart
Orbit Comprehensive Analysis Chart
View Comprehensive Chart
Conjunction Data List
Event ID Objects TCA Miss Dist (km) Collision Risk Probability Collision Risk Index (CRI) Action
CDM_260906-001406-314906-681421
2026-09-06T
00:14:14+0000
0.318 km
远距离
3.520228E-4 高风险 0.86
CDM_260905-224006-314906-681421
2026-09-05T
22:40:05+0000
1.069 km
极远距离
1.376046E-5 中风险 0.58
CDM_260906-014806-314906-681421
2026-09-06T
01:48:23+0000
1.390 km
极远距离
5.598516E-6 低风险 0.5
CDM_260903-134705-321306-314921
2026-09-03T
13:47:36+0000
2.229 km
极远距离
2.131507E-6 低风险 0.42
CDM_260905-210506-314906-681421
2026-09-05T
21:05:56+0000
2.227 km
极远距离
1.507195E-6 低风险 0.39
CDM_260906-032206-314906-681421
2026-09-06T
03:22:32+0000
2.596 km
极远距离
1.13733E-6 低风险 0.36